Regional Weather Roundup
Issued by NWS Midland/Odessa, TX

Skip options and go directly to product.
Home | Oldest Version | Previous Version | Current Version | All | Text Only | Save Text | Print | Product List | Glossary On

Skip product version selection by date and time.   
272
ASUS44 KMAF 020210
RWRMAF
MIDLAND AREA WEATHER ROUNDUP
NATIONAL WEATHER SERVICE MIDLAND TX
900 PM CDT SAT AUG 01 2015

...IN SOUTHWEST TEXAS AND SOUTHEAST NEW MEXICO...

CITY           SKY/WX    TMP DP  RH WIND       PRES   REMARKS
ALPINE         PTCLDY    79  59  51 SE10G22   30.15S
ANDREWS        FAIR      84  63  48 SE15G21   30.03R
ARTESIA        CLEAR     90  55  31 NE6       30.00R
BIG SPRING     MOCLDY    83  60  46 E8        30.02S
CARLSBAD       CLOUDY    83  65  54 W10       29.98R
DRYDEN           N/A     89  63  41 E7        29.96R
FORT STOCKTON  LGT RAIN  86  62  44 SE16G22   30.00S
GUAD PASS      PTCLDY    76  54  46 NE15      30.16F
HOBBS          CLOUDY    77  63  61 E12       30.06F
MARFA          MOCLDY    73  63  68 NE6       30.13S
MIDLAND AIRPK  PTCLDY    85  62  46 S12       30.02S
MIDLAND INTL   PTCLDY    83  63  50 SE20G26   30.01R
ODESSA         CLEAR     85  62  46 SE17G24   30.02R
PECOS          PTCLDY    88  59  37 E20G29    29.96R
PRESIDIO       FAIR      89  60  37 MISG      29.95S
SEMINOLE       MOCLDY    85  61  44 E3        30.05R
SNYDER         PTCLDY    87  66  49 SE9       30.01R
WINK           PTCLDY    91  60  35 S18G32    29.97R
$$
...OTHER STATIONS IN TEXAS...

CITY           SKY/WX    TMP DP  RH WIND       PRES   REMARKS
ABILENE        MOCLDY    87  64  46 SE10      29.98S
AMARILLO       MOCLDY    76  69  79 SE14      30.06R
AUSTIN         PTCLDY    80  63  55 NE5       29.92R
BROWNSVILLE    MOCLDY    81  74  79 SE5       29.91R
CORPUS CHRISTI MOCLDY    84  70  62 SE8       29.89R
DALLAS FTW     MOCLDY    89  56  32 SE8       29.93R
DEL RIO        PTCLDY    85  73  67 E5        29.88S
EL PASO        PTCLDY    91  50  24 S6        29.98S
HOUSTON INT    PTCLDY    83  63  50 E7        29.90R
LUBBOCK        CLOUDY    75  59  57 SW15      30.06S THUNDER
SAN ANGELO     CLEAR     89  60  37 E9        29.96R
SAN ANTONIO    PTCLDY    89  57  33 E9        29.93R
WACO           PTCLDY    88  59  37 E6        29.93R
WICHITA FALLS  NOT AVBL
$$
...OTHER LOCATIONS IN NEW MEXICO...

CITY           SKY/WX    TMP DP  RH WIND       PRES   REMARKS
ALAMAGORDO     PTCLDY    88  48  25 NW3       30.02S
ALBUQUERQUE    CLOUDY    80  53  39 N14       30.14R
CANNON AFB     MOCLDY    78  64  62 S7        30.09R
CLOVIS         MOCLDY    77  63  61 S9        30.09R
HOLLOMAN AFB   PTCLDY    89  47  23 W5        30.00R
ROSWELL        PTCLDY    89  56  32 N5        30.01R
RUIDOSO          N/A    N/A N/A N/A MISG        N/A
SANTA FE       MOCLDY    69  55  60 N10       30.23R
TRUTH OR CONSE MOCLDY    84  52  33 W5        30.08R
TUCUMCARI      CLOUDY    74  62  66 W15       30.05R
$$

USA.gov is the U.S. government's official web portal to all federal, state and local government web resources and services.